Regional Weather Roundup
Issued by NWS

Home | Current Version | Previous Version | Graphics & Text | Print | Product List | Glossary On
Versions: 1 2 3 4 5 6 7 8 9 10 11 12 13 14 15 16 17 18 19 20 21 22 23 24 25 26 27 28 29 30 31 32 33 34 35 36 37 38 39 40 41 42 43 44 45 46 47 48 49 50
000
ASUS43 KIND 100959
RWRIN

WEATHER ROUNDUP FOR INDIANA
NATIONAL WEATHER SERVICE INDIANAPOLIS IN
500 AM EST WED FEB 10 2016

NOTE: "FAIR" INDICATES FEW OR NO CLOUDS BELOW 12,000 FEET WITH NO
SIGNIFICANT WEATHER AND/OR OBSTRUCTIONS TO VISIBILITY.

* - STATION DOES NOT REPORT WEATHER SUCH AS PRECIPITATION OR FOG.

+ - STATION NOT QUALITY CONTROLLED BY THE NATIONAL WEATHER SERVICE.
    USE DATA WITH CAUTION...ESPECIALLY DEWPOINT AND RELATIVE
    HUMIDITY OBSERVATIONS.

INZ001>003-010>013-019-020-101100-
NORTHWEST INDIANA

CITY           SKY/WX    TMP DP  RH WIND       PRES   REMARKS
MONTICELLO +   CLOUDY    14   5  66 W13G18    29.94S WCI   0
VALPARAISO     LGT SNOW  15   9  76 NW18G24   29.91S WCI  -2

$$

LMZ046-743>745-101100-
SOUTHERN LAKE MICHIGAN

STATION/POSITION TIME  TEMP    WIND        PRES    WAVE
                       AIR SEA DIR/SP/G            HT
                 (UTC) (F)     (DEG/KT/KT) (MB)    (FT)
BURNS HARBOR     0900   18     310/ 20     1013.5S
MICHIGAN CITY    0900   19     280/ 26/ 30   N/A

$$

INZ004-005-014>016-021>024-101100-
NORTH CENTRAL INDIANA

CITY           SKY/WX    TMP DP  RH WIND       PRES   REMARKS
GOSHEN         LGT SNOW  18  15  88 W7        29.84R FOG     WCI   9
PERU/GRISSOM   LGT SNOW  13   9  84 W14       29.89S FOG     WCI  -2
SOUTH BEND     LGT SNOW  18  15  88 NW15      29.86R FOG     WCI   4

$$

INZ006>009-017-018-025>027-101100-
NORTHEAST INDIANA

CITY           SKY/WX    TMP DP  RH WIND       PRES   REMARKS
ANGOLA *+      MOCLDY    18  16  93 W5        29.79R WCI  11
FORT WAYNE     LGT SNOW  17  11  77 W21G26    29.85R WCI   0

$$

INZ028-029-035-036-043>045-051>053-101100-
WEST CENTRAL INDIANA

CITY           SKY/WX    TMP DP  RH WIND       PRES   REMARKS
GREENCASTLE +  FLURRIES  14   3  62 W7        29.98S WCI   4
LAFAYETTE      CLOUDY    13   7  77 W15       29.97S WCI  -3
TERRE HAUTE    CLOUDY    14   6  70 NW10      30.03S WCI   1

$$

INZ030>032-037>040-046>048-054>057-064-065-101100-
CENTRAL INDIANA

CITY           SKY/WX    TMP DP  RH WIND       PRES   REMARKS
FRANKFORT +    FLURRIES  13   4  68 W14       29.95F WCI  -2
GREENWOOD *+   CLOUDY    14   9  79 NW10G23   29.97R WCI   1
INDIANAPOLIS   FLURRIES  13   7  77 W14       29.95S WCI  -2
-EAGLE CREEK   LGT SNOW  13   8  81 NW16      29.95R WCI  -3
KOKOMO *+      CLOUDY    12   9  85 W18       29.91S WCI  -5
MT COMFORT *+  CLOUDY    14   9  79 NW18      29.94R WCI  -3
SHELBYVILLE    LGT SNOW  16   8  71 W13       29.95R WCI   2

$$

INZ033-034-041-042-049-050-058-059-101100-
EAST CENTRAL INDIANA

CITY           SKY/WX    TMP DP  RH WIND       PRES   REMARKS
MUNCIE         LGT SNOW  15   9  76 W15G22    29.89S WCI   0

$$

INZ060-061-067>069-081>083-085>088-101100-
SOUTHWEST INDIANA

CITY           SKY/WX    TMP DP  RH WIND       PRES   REMARKS
EVANSVILLE     CLOUDY    18   7  62 NW9       30.11S WCI   7
HUNTINGBURG *+ CLOUDY    16   7  67 NW16      30.07R WCI   0

$$

INZ062-063-066-070>080-084-089>092-101100-
SOUTH CENTRAL AND SOUTHEAST INDIANA

CITY           SKY/WX    TMP DP  RH WIND       PRES   REMARKS
BLOOMINGTON    LGT SNOW  14  10  84 W10       29.99S FOG     WCI   1
MADISON *+     CLOUDY    18  10  73 W8G16     29.99S WCI   7
SEYMOUR +      FLURRIES  18  10  73 W16G22    30.01R WCI   3

$$




USA.gov is the U.S. government's official web portal to all federal, state and local government web resources and services.